THA1123 VTBS-VTCN

Flight info

Callsign THA1123
Flight time N/A
Altitude 34000
Route UGUVO1G UGUVO Y27 IBUBU W25 NAN
Aircraft MD11/H-SDE1E2E3FGHIJ2J3J4J5M1RWXY/LB1D1

Departure

Time 2026-05-08 07:44
Airport Suvarnabhumi Airport (VTBS)

Arrival

Time N/A
Airport Nan Airport (VTCN)
Time Latitude Longitude Altitude Speed Heading
2026-05-08 07:23 13.68638 100.75378 12 ft 0 kts 284°
2026-05-08 07:31 13.68638 100.75382 12 ft 2 kts 285°
2026-05-08 07:31 13.68632 100.75403 12 ft 2 kts 284°
2026-05-08 07:31 13.68630 100.75413 12 ft 2 kts 284°
2026-05-08 07:31 13.68624 100.75436 12 ft 3 kts 280°
2026-05-08 07:32 13.68628 100.75451 12 ft 3 kts 246°
2026-05-08 07:32 13.68638 100.75468 12 ft 3 kts 203°
2026-05-08 07:32 13.68657 100.75478 12 ft 2 kts 189°
2026-05-08 07:32 13.68673 100.75480 12 ft 2 kts 188°
2026-05-08 07:33 13.68698 100.75485 12 ft 4 kts 193°
2026-05-08 07:33 13.68716 100.75489 12 ft 0 kts 195°
2026-05-08 07:35 13.68698 100.75485 12 ft 4 kts 194°
2026-05-08 07:35 13.68661 100.75474 12 ft 6 kts 194°
2026-05-08 07:35 13.68609 100.75462 12 ft 8 kts 194°
2026-05-08 07:35 13.68548 100.75442 12 ft 9 kts 215°
2026-05-08 07:36 13.68532 100.75374 12 ft 10 kts 283°
2026-05-08 07:36 13.68551 100.75292 12 ft 12 kts 284°
2026-05-08 07:36 13.68574 100.75201 12 ft 13 kts 284°
2026-05-08 07:36 13.68600 100.75098 12 ft 15 kts 284°
2026-05-08 07:37 13.68627 100.74987 12 ft 17 kts 284°
2026-05-08 07:37 13.68669 100.74818 12 ft 19 kts 284°
2026-05-08 07:37 13.68699 100.74698 12 ft 17 kts 284°
2026-05-08 07:37 13.68717 100.74623 12 ft 6 kts 284°
2026-05-08 07:38 13.68730 100.74570 12 ft 9 kts 284°
2026-05-08 07:38 13.68749 100.74495 12 ft 11 kts 284°
2026-05-08 07:38 13.68772 100.74406 12 ft 13 kts 284°
2026-05-08 07:38 13.68796 100.74306 12 ft 15 kts 284°
2026-05-08 07:39 13.68831 100.74159 12 ft 13 kts 283°
2026-05-08 07:39 13.68872 100.74107 12 ft 7 kts 356°
2026-05-08 07:39 13.68909 100.74114 12 ft 8 kts 15°
2026-05-08 07:39 13.68971 100.74132 12 ft 9 kts 16°
2026-05-08 07:40 13.69069 100.74159 12 ft 11 kts 14°
2026-05-08 07:40 13.69126 100.74174 12 ft 13 kts 14°
2026-05-08 07:40 13.69225 100.74199 12 ft 14 kts 14°
2026-05-08 07:40 13.69335 100.74227 12 ft 16 kts 14°
2026-05-08 07:41 13.69453 100.74258 12 ft 18 kts 14°
2026-05-08 07:41 13.69584 100.74293 12 ft 19 kts 14°
2026-05-08 07:41 13.69726 100.74330 12 ft 21 kts 14°
2026-05-08 07:41 13.69878 100.74370 12 ft 22 kts 14°
2026-05-08 07:42 13.70039 100.74411 12 ft 24 kts 14°
2026-05-08 07:42 13.70208 100.74456 12 ft 15 kts 15°
2026-05-08 07:42 13.70281 100.74475 12 ft 16 kts
2026-05-08 07:42 13.70347 100.74393 12 ft 16 kts 269°
2026-05-08 07:43 13.70283 100.74298 12 ft 16 kts 200°
2026-05-08 07:43 13.70258 100.74290 12 ft 2 kts 196°
2026-05-08 07:43 13.70144 100.74259 12 ft 47 kts 194°
2026-05-08 07:43 13.69544 100.74103 12 ft 124 kts 195°
2026-05-08 07:44 13.68392 100.73797 37 ft 188 kts 194°
2026-05-08 07:44 13.67094 100.73465 855 ft 182 kts 192°
2026-05-08 07:44 13.65829 100.73160 1677 ft 180 kts 192°
2026-05-08 07:44 13.64555 100.72849 2149 ft 187 kts 192°
2026-05-08 07:45 13.63212 100.72524 2722 ft 183 kts 192°
2026-05-08 07:45 13.61910 100.72208 3112 ft 194 kts 192°
2026-05-08 07:45 13.60432 100.71854 3297 ft 219 kts 192°
2026-05-08 07:45 13.58788 100.71468 3431 ft 248 kts 192°
2026-05-08 07:46 13.56981 100.71047 3655 ft 274 kts 192°
2026-05-08 07:46 13.55174 100.70624 4797 ft 263 kts 191°
2026-05-08 07:46 13.53214 100.70167 5303 ft 282 kts 191°
2026-05-08 07:46 13.51372 100.69330 6242 ft 280 kts 224°
2026-05-08 07:47 13.50298 100.67497 6908 ft 291 kts 261°
2026-05-08 07:47 13.50486 100.65339 7684 ft 290 kts 296°
2026-05-08 07:47 13.51595 100.63460 8457 ft 295 kts 309°
2026-05-08 07:47 13.52883 100.61652 9355 ft 299 kts 304°
2026-05-08 07:48 13.54075 100.59740 9728 ft 301 kts 309°
2026-05-08 07:48 13.55616 100.58117 10074 ft 299 kts 328°
2026-05-08 07:48 13.57528 100.57128 11019 ft 295 kts 345°
2026-05-08 07:48 13.59723 100.56765 11575 ft 302 kts
2026-05-08 07:49 13.61861 100.56916 12514 ft 300 kts
2026-05-08 07:49 13.64072 100.57118 13119 ft 310 kts
2026-05-08 07:49 13.66286 100.57284 14081 ft 308 kts
2026-05-08 07:49 13.68528 100.57399 14299 ft 334 kts
2026-05-08 07:50 13.71020 100.57486 14547 ft 358 kts
2026-05-08 07:50 13.73694 100.57577 14832 ft 380 kts
2026-05-08 07:50 13.77501 100.57212 15272 ft 407 kts 348°
2026-05-08 07:50 13.79427 100.56632 15553 ft 418 kts 340°
2026-05-08 07:51 13.82222 100.55201 16013 ft 432 kts 329°
2026-05-08 07:51 13.84935 100.53465 16846 ft 436 kts 328°
2026-05-08 07:51 13.87633 100.51693 17719 ft 439 kts 328°
2026-05-08 07:51 13.90320 100.49941 18484 ft 444 kts 329°
2026-05-08 07:52 13.94195 100.47775 19449 ft 450 kts 336°
2026-05-08 07:52 13.96194 100.46922 19904 ft 453 kts 341°
2026-05-08 07:52 13.99398 100.45817 20646 ft 458 kts 343°
2026-05-08 07:52 14.02595 100.44810 21326 ft 463 kts 344°
2026-05-08 07:53 14.05876 100.43794 22011 ft 469 kts 344°
2026-05-08 07:53 14.09160 100.42760 22726 ft 473 kts 344°
2026-05-08 07:53 14.12427 100.41718 23509 ft 475 kts 343°
2026-05-08 07:53 14.15694 100.40672 24197 ft 479 kts 344°
2026-05-08 07:54 14.18953 100.39631 24848 ft 483 kts 344°
2026-05-08 07:54 14.22279 100.38569 25558 ft 486 kts 344°
2026-05-08 07:54 14.25651 100.37496 26251 ft 489 kts 344°
2026-05-08 07:54 14.29012 100.36430 26881 ft 493 kts 345°
2026-05-08 07:55 14.32426 100.35347 27557 ft 497 kts 345°
2026-05-08 07:55 14.35874 100.34252 28192 ft 501 kts 345°
2026-05-08 07:55 14.39417 100.33122 28862 ft 504 kts 345°
2026-05-08 07:55 14.42965 100.31958 29594 ft 507 kts 342°
2026-05-08 07:56 14.47579 100.30154 30772 ft 505 kts 338°
2026-05-08 07:56 14.49817 100.29125 31368 ft 504 kts 337°
2026-05-08 07:56 14.53152 100.27486 32228 ft 501 kts 335°
2026-05-08 07:56 14.56411 100.25838 33133 ft 498 kts 335°
2026-05-08 07:57 14.59595 100.24232 33672 ft 500 kts 335°
2026-05-08 07:57 14.62868 100.22694 33177 ft 497 kts 341°
2026-05-08 07:57 14.66159 100.21627 33655 ft 479 kts 347°
2026-05-08 07:57 14.69562 100.20970 33219 ft 489 kts 356°
2026-05-08 07:58 14.73023 100.20772 33502 ft 479 kts 360°
2026-05-08 07:58 14.76570 100.20692 33398 ft 494 kts
2026-05-08 07:58 14.80124 100.20624 33464 ft 487 kts
2026-05-08 07:59 14.87077 100.20424 33272 ft 487 kts 359°
2026-05-08 07:59 14.90494 100.20299 33526 ft 483 kts 359°
2026-05-08 07:59 14.94008 100.20170 33250 ft 489 kts 359°
2026-05-08 07:59 14.97459 100.20042 33089 ft 483 kts 359°
2026-05-08 08:00 15.00975 100.19916 33059 ft 485 kts 359°
2026-05-08 08:00 15.04496 100.19797 33289 ft 490 kts 359°
2026-05-08 08:00 15.07989 100.19680 33492 ft 500 kts 359°
2026-05-08 08:00 15.11528 100.19618 33257 ft 493 kts
2026-05-08 08:01 15.15006 100.19747 33584 ft 484 kts
2026-05-08 08:01 15.18468 100.20100 33281 ft 482 kts
2026-05-08 08:01 15.21862 100.20580 33537 ft 476 kts
2026-05-08 08:01 15.25214 100.21073 33377 ft 492 kts